Weather reports worldwide

Advertisment
La Roche-Sur-Yon, France (7306): temperature & dewpoint: 12.01.2020 13:00:00 - 18.01.2020 13:00:00 (CET)La Roche-Sur-Yon, France (7306): temperature 5cm: 12.01.2020 13:00:00 - 18.01.2020 13:00:00 (CET)La Roche-Sur-Yon, France (7306): temperature -20cm & temperature -100cm: 12.01.2020 13:00:00 - 18.01.2020 13:00:00 (CET)La Roche-Sur-Yon, France (7306): wind speed & gusts: 12.01.2020 13:00:00 - 18.01.2020 13:00:00 (CET)La Roche-Sur-Yon, France (7306): wind direction: 12.01.2020 13:00:00 - 18.01.2020 13:00:00 (CET)La Roche-Sur-Yon, France (7306): reduced air pressure: 12.01.2020 13:00:00 - 18.01.2020 13:00:00 (CET)La Roche-Sur-Yon, France (7306): visibility: 12.01.2020 13:00:00 - 18.01.2020 13:00:00 (CET)La Roche-Sur-Yon, France (7306): sunshine duration: 12.01.2020 13:00:00 - 18.01.2020 13:00:00 (CET)La Roche-Sur-Yon, France (7306): precipitation: 12.01.2020 13:00:00 - 18.01.2020 13:00:00 (CET)
Date & Time tt [°C] td [°C] tt 5cm [°C] tt -20cm [°C] tt -100cm [°C] ff [km/h] ff [kn] fx [km/h] fx [kn] dd ppp [hPa] vv [km] sd [min] rr [mm]
18.01.2020 13:00:00 - - - - - - - - - - - - - -
18.01.2020 12:00:00 7,4 4,9 8,2 8,0 10,0 14 7 21 12 ESE 1026,9 38 56 0,0
18.01.2020 11:00:00 6,0 4,2 4,3 8,0 10,0 11 6 21 12 SE 1027,7 41 56 0,0
18.01.2020 10:00:00 3,5 3,4 0,3 8,1 10,0 11 6 14 8 ESE 1027,9 16 15 0,0
18.01.2020 09:00:00 1,2 0,9 0,2 8,2 10,0 11 6 12 7 E 1028,6 14 0 0,0
18.01.2020 08:00:00 1,5 0,9 0,0 8,3 10,0 10 6 11 6 E 1028,6 17 0 0,0
18.01.2020 07:00:00 3,1 2,2 1,1 8,3 10,0 3 1 17 9 SW 1028,6 36 0 0,0
18.01.2020 06:00:00 3,6 2,7 1,8 8,4 10,0 8 5 16 8 SSE 1028,9 36 0 0,0
18.01.2020 05:00:00 3,6 2,6 1,4 8,5 10,0 10 6 17 9 SSE 1029,1 37 0 0,0
18.01.2020 04:00:00 3,6 2,9 0,3 8,6 9,9 6 3 9 5 SE 1029,2 38 0 0,0
18.01.2020 03:00:00 4,5 3,2 0,8 8,7 10,0 7 4 13 7 S 1029,3 40 0 0,0
18.01.2020 02:00:00 3,5 2,2 0,6 8,7 9,9 10 5 11 6 S 1029,6 45 0 0,0
18.01.2020 01:00:00 4,4 2,7 1,2 8,8 9,9 7 4 10 5 SSW 1029,5 51 0 0,4
18.01.2020 00:00:00 4,5 3,2 1,2 8,9 9,9 5 3 19 10 NNW 1029,6 51 0 0,0
17.01.2020 23:00:00 4,9 2,6 0,9 9,0 10,0 7 4 17 9 SW 1029,0 60 0 0,0
17.01.2020 22:00:00 6,3 3,6 3,0 9,0 10,0 11 6 23 12 WNW 1029,2 37 0 0,0
17.01.2020 21:00:00 6,2 3,9 3,0 9,1 10,0 11 6 21 11 WSW 1028,6 19 0 0,0
17.01.2020 20:00:00 4,7 3,5 1,7 9,1 10,0 8 4 11 6 SSW 1028,1 37 0 0,0
17.01.2020 19:00:00 6,0 3,5 2,6 9,2 10,0 6 3 17 9 WSW 1027,4 60 0 0,0
17.01.2020 18:00:00 6,9 4,4 5,0 9,2 10,0 9 5 18 10 SW 1026,7 58 0 0,0
17.01.2020 17:00:00 6,9 4,2 5,4 9,1 9,9 11 6 55 30 SW 1025,8 60 6 0,2
17.01.2020 16:00:00 8,9 4,5 6,8 9,2 10,0 14 8 29 15 W 1025,1 38 7 0,6
17.01.2020 15:00:00 8,6 5,7 6,7 9,2 10,0 7 4 14 8 WSW 1024,1 20 12 0,0
17.01.2020 14:00:00 7,4 4,7 6,1 9,1 10,0 21 11 56 31 W 1024,1 6 43 0,8
17.01.2020 13:00:00 8,0 5,1 7,1 9,1 10,0 31 17 53 29 WNW 1023,6 9 49 0,4
17.01.2020 12:00:00 10,0 6,3 9,5 9,1 10,0 13 7 23 13 W 1023,0 38 35 0,0
17.01.2020 11:00:00 9,5 7,3 7,3 9,2 10,0 10 5 16 9 WSW 1022,1 51 15 0,0
17.01.2020 10:00:00 7,6 6,5 5,8 9,2 10,0 7 4 44 24 W 1021,0 19 12 1,2
17.01.2020 09:00:00 8,9 6,0 7,6 9,2 10,0 11 6 23 12 WSW 1020,3 46 0 0,0
17.01.2020 08:00:00 9,4 6,3 8,1 9,2 10,0 13 7 29 16 WSW 1019,1 45 0 0,0
17.01.2020 07:00:00 9,5 7,3 7,9 9,2 10,0 11 6 29 15 WSW 1018,4 40 0 0,0
17.01.2020 06:00:00 9,9 8,7 8,7 9,2 10,0 11 6 25 13 SW 1017,6 34 0 0,0
17.01.2020 05:00:00 10,3 8,7 9,2 9,2 10,0 14 8 30 16 SW 1017,5 39 0 0,4
17.01.2020 04:00:00 10,8 9,6 9,8 9,2 10,0 18 10 46 25 SW 1016,9 20 0 0,0
17.01.2020 03:00:00 10,5 10,0 9,9 9,2 10,0 18 10 31 17 S 1016,8 50 0 0,0
17.01.2020 02:00:00 10,4 10,1 10,0 9,2 10,0 18 10 29 16 S 1016,8 60 0 0,0
17.01.2020 01:00:00 10,4 10,1 9,9 9,1 10,0 14 8 28 15 S 1016,7 9 0 1,0
17.01.2020 00:00:00 10,6 10,1 10,0 9,1 10,0 15 8 21 12 S 1017,1 11 0 1,2
16.01.2020 23:00:00 10,8 9,9 10,1 9,1 10,0 14 7 21 12 S 1016,9 16 0 0,2
16.01.2020 22:00:00 11,0 9,9 9,9 9,1 10,0 11 6 33 18 SSW 1016,9 5 0 0,4
16.01.2020 21:00:00 11,5 8,2 10,4 9,0 9,9 21 11 35 19 S 1016,3 44 0 0,0
16.01.2020 20:00:00 11,4 7,7 9,9 9,0 10,0 19 10 31 17 SSE 1016,4 57 0 0,0
16.01.2020 19:00:00 11,7 7,6 10,3 9,0 10,0 19 10 35 19 SSE 1016,1 60 0 0,0
16.01.2020 18:00:00 12,4 7,7 10,9 9,0 10,0 18 10 37 20 SSE 1016,4 60 0 0,0
16.01.2020 17:00:00 13,3 7,7 12,6 8,9 10,0 24 13 45 24 SSE 1016,8 44 42 0,0
16.01.2020 16:00:00 13,8 7,6 15,2 8,8 10,0 29 16 49 26 SSE 1016,8 29 60 0,0
16.01.2020 15:00:00 13,7 7,9 14,6 8,8 10,0 29 16 48 26 S 1017,5 29 56 0,0
16.01.2020 14:00:00 13,2 7,8 13,1 8,7 9,9 30 16 46 25 SSE 1018,2 36 60 0,0
16.01.2020 13:00:00 11,3 7,6 11,0 8,7 10,0 27 15 48 26 SSE 1019,2 47 36 0,0
16.01.2020 12:00:00 10,7 7,0 9,9 8,8 10,0 25 13 45 25 SE 1020,2 20 36 0,0
16.01.2020 11:00:00 9,4 7,0 7,0 8,8 10,0 24 13 42 23 SSE 1021,0 29 43 0,0
16.01.2020 10:00:00 7,6 5,9 5,6 8,8 10,0 19 10 33 18 SE 1020,6 19 37 0,0
16.01.2020 09:00:00 6,6 5,4 5,5 8,9 10,0 19 10 37 20 SE 1020,9 20 0 0,0
16.01.2020 08:00:00 7,1 5,7 5,8 8,9 9,9 22 12 43 23 SE 1020,7 22 0 0,0
16.01.2020 07:00:00 6,6 6,0 5,9 8,9 10,0 21 12 36 19 SE 1021,1 20 0 0,0
16.01.2020 06:00:00 6,8 6,8 6,0 8,9 10,0 16 9 31 17 SE 1021,8 10 0 0,0
16.01.2020 05:00:00 7,7 7,7 7,4 9,0 10,0 15 8 28 15 SE 1022,1 0,2 0 0,0
16.01.2020 04:00:00 7,5 7,5 7,4 9,0 9,9 14 8 22 12 SSE 1022,7 0,2 0 0,0
16.01.2020 03:00:00 7,8 7,8 6,6 9,0 10,0 14 7 22 12 SE 1022,8 0,2 0 0,0
16.01.2020 02:00:00 7,2 7,2 6,6 9,1 10,0 11 6 18 10 SSE 1022,9 0,3 0 0,0
16.01.2020 01:00:00 7,2 7,2 6,1 9,1 10,0 9 5 16 8 SSE 1023,3 0,2 0 0,0
16.01.2020 00:00:00 7,5 7,2 6,1 9,1 9,9 11 6 16 9 SE 1023,4 4,0 0 0,0
15.01.2020 23:00:00 7,7 7,4 5,1 9,2 10,0 8 5 13 7 SE 1023,5 9 0 0,0
15.01.2020 22:00:00 7,7 7,4 4,0 9,3 10,0 8 5 12 6 SSE 1023,5 11 0 0,0
15.01.2020 21:00:00 7,3 6,6 2,5 9,3 10,0 10 5 14 8 SSE 1023,2 18 0 0,0
15.01.2020 20:00:00 7,8 6,7 2,7 9,4 10,0 8 4 10 5 S 1022,9 28 0 0,0
15.01.2020 19:00:00 8,4 7,0 3,7 9,3 10,0 7 4 10 5 S 1021,8 43 0 0,0
15.01.2020 18:00:00 9,8 7,2 7,4 9,3 10,0 6 4 21 11 SW 1020,8 60 13 0,0
15.01.2020 17:00:00 11,3 7,8 11,7 9,2 10,0 11 6 20 11 WSW 1019,5 54 55 0,0
15.01.2020 16:00:00 11,4 8,6 11,5 9,2 10,0 10 5 30 16 W 1018,1 58 12 0,0
15.01.2020 15:00:00 10,9 8,6 10,9 9,1 10,0 16 9 39 21 W 1016,9 59 0 0,0
15.01.2020 14:00:00 11,3 9,6 11,1 9,1 10,0 26 14 47 25 W 1015,9 50 0 0,0
15.01.2020 13:00:00 12,7 9,5 11,7 9,0 9,9 26 14 44 24 WSW 1014,8 39 0 0,0
15.01.2020 12:00:00 12,5 10,9 10,8 9,0 10,0 24 13 41 22 SSW 1013,8 17 0 0,4
15.01.2020 11:00:00 11,6 10,0 9,8 9,0 10,0 25 14 44 24 S 1012,9 11 0 0,0
15.01.2020 10:00:00 10,0 7,6 8,3 9,0 10,0 22 12 41 22 SSE 1012,3 19 0 0,0
15.01.2020 09:00:00 9,2 6,6 8,3 9,1 10,0 25 13 44 24 SSE 1010,9 31 0 0,0
15.01.2020 08:00:00 8,9 6,3 7,8 9,1 10,0 24 13 40 22 SSE 1010,8 33 0 0,0
15.01.2020 07:00:00 8,5 6,1 7,6 9,1 10,0 22 12 38 21 SSE 1010,8 31 0 0,0
15.01.2020 06:00:00 8,5 6,1 7,4 9,2 10,0 23 13 35 19 SSE 1010,9 29 0 0,0
15.01.2020 05:00:00 8,4 6,0 7,0 9,3 10,0 22 12 36 20 SSE 1011,2 30 0 0,0
15.01.2020 04:00:00 8,0 5,8 6,5 9,3 10,0 20 11 31 17 SSE 1011,6 35 0 0,0
15.01.2020 03:00:00 8,3 5,8 7,1 9,4 10,0 22 12 41 22 SSE 1011,4 34 0 0,0
15.01.2020 02:00:00 8,4 6,2 7,2 9,4 10,0 21 12 36 19 SSE 1011,7 31 0 0,0
15.01.2020 01:00:00 8,6 6,6 7,5 9,5 10,0 23 12 39 21 SSE 1012,1 27 0 0,0
15.01.2020 00:00:00 9,1 7,0 7,7 9,5 10,0 24 13 38 20 S 1012,2 20 0 0,0
14.01.2020 23:00:00 9,0 7,3 7,5 9,5 10,0 22 12 32 17 SSE 1012,1 20 0 0,0
14.01.2020 22:00:00 9,1 7,5 7,2 9,6 10,0 20 11 33 18 SSE 1012,5 20 0 0,0
14.01.2020 21:00:00 8,5 7,0 6,8 9,6 10,0 18 10 29 16 SSE 1012,7 26 0 0,0
14.01.2020 20:00:00 8,4 7,2 7,1 9,6 10,0 15 8 25 13 SSE 1013,0 23 0 0,0
14.01.2020 19:00:00 9,3 8,4 8,6 9,6 10,0 14 7 31 17 SSE 1012,5 15 0 1,0
14.01.2020 18:00:00 9,7 9,1 9,3 9,6 10,0 21 12 40 21 S 1012,9 7 0 0,8
14.01.2020 17:00:00 9,8 9,2 9,5 9,6 10,0 20 11 39 21 S 1012,5 11 0 0,4
14.01.2020 16:00:00 10,1 9,3 9,7 9,5 10,0 26 14 41 22 S 1012,1 13 0 0,2
14.01.2020 15:00:00 9,8 9,0 9,7 9,5 10,0 29 15 48 26 S 1012,2 7 0 0,4
14.01.2020 14:00:00 9,7 9,1 9,7 9,5 10,0 27 15 42 23 S 1012,3 9 0 0,2
14.01.2020 13:00:00 9,5 9,0 9,2 9,5 10,1 27 15 46 25 S 1012,4 10 0 0,6
14.01.2020 12:00:00 9,2 8,6 9,1 9,5 10,1 33 18 55 30 S 1012,7 7 0 1,5
14.01.2020 11:00:00 9,1 8,6 8,9 9,5 10,1 31 17 50 27 S 1012,5 5 0 1,4
14.01.2020 10:00:00 10,3 9,7 10,0 9,4 10,1 30 16 55 30 S 1011,8 7 0 1,2
14.01.2020 09:00:00 10,9 10,3 10,4 9,4 10,1 28 15 42 23 SSW 1011,1 8 0 1,8
14.01.2020 08:00:00 10,8 10,3 10,4 9,4 10,0 27 15 57 31 S 1010,9 7 0 1,8
14.01.2020 07:00:00 10,9 10,4 10,4 9,4 10,0 30 16 55 30 SSW 1010,7 6 0 2,0
14.01.2020 06:00:00 10,9 10,3 10,4 9,3 10,0 29 16 56 31 SSW 1010,6 4,2 0 2,4
14.01.2020 05:00:00 11,1 10,3 10,5 9,3 10,0 35 19 65 35 SSW 1010,4 4,9 0 3,1
14.01.2020 04:00:00 11,0 10,2 9,9 9,3 10,0 27 15 46 25 SSW 1010,8 3,5 0 2,6
14.01.2020 03:00:00 11,4 9,1 9,9 9,3 10,0 19 10 41 22 SSW 1010,9 12 0 0,4
14.01.2020 02:00:00 11,8 8,8 9,8 9,3 10,0 21 12 38 20 SSW 1011,1 51 0 0,0
14.01.2020 01:00:00 10,5 9,6 9,5 9,3 10,0 24 13 36 19 S 1011,4 15 0 0,0
14.01.2020 00:00:00 10,3 8,9 9,6 9,3 10,0 21 11 34 19 S 1011,4 20 0 0,0
13.01.2020 23:00:00 10,7 9,1 9,6 9,3 10,0 24 13 41 22 S 1012,0 20 0 0,0
13.01.2020 22:00:00 10,4 9,0 9,3 9,2 10,0 22 12 40 22 S 1012,5 13 0 0,0
13.01.2020 21:00:00 9,7 8,3 9,0 9,2 10,0 21 12 40 22 S 1013,2 15 0 0,0
13.01.2020 20:00:00 9,4 7,8 8,7 9,2 10,0 25 13 40 22 S 1013,5 20 0 0,0
13.01.2020 19:00:00 9,4 7,8 8,6 9,2 10,0 25 14 41 22 S 1013,4 20 0 0,0
13.01.2020 18:00:00 9,4 8,0 8,7 9,2 10,0 24 13 38 20 S 1013,7 20 0 0,0
13.01.2020 17:00:00 9,6 8,4 9,0 9,2 10,0 20 11 40 22 S 1014,5 20 0 0,0
13.01.2020 16:00:00 9,8 7,7 10,1 9,2 10,0 26 14 41 22 S 1015,0 20 0 0,0
13.01.2020 15:00:00 9,8 8,1 10,2 9,1 10,0 23 12 41 22 S 1015,9 19 0 0,0
13.01.2020 14:00:00 10,2 9,0 10,3 9,1 10,0 31 17 50 27 S 1016,6 20 0 0,0
13.01.2020 13:00:00 10,0 9,4 10,0 9,0 10,0 25 14 42 23 S 1017,9 17 0 0,0
13.01.2020 12:00:00 10,3 9,8 10,1 9,0 10,0 25 14 41 22 S 1018,9 5 0 0,2
13.01.2020 11:00:00 10,4 9,8 10,0 8,9 10,0 22 12 42 23 S 1019,8 10 0 0,2
13.01.2020 10:00:00 10,4 9,8 10,0 8,9 10,0 23 13 41 22 S 1020,2 16 0 0,2
13.01.2020 09:00:00 10,3 10,0 10,0 8,9 10,0 25 14 46 25 S 1020,1 4,5 0 0,0
13.01.2020 08:00:00 10,4 10,1 10,1 8,9 10,0 25 14 42 23 SSW 1020,4 12 0 0,2
13.01.2020 07:00:00 10,4 10,1 10,2 8,9 10,0 24 13 40 22 SSW 1020,9 3,6 0 0,6
13.01.2020 06:00:00 10,5 10,3 9,4 8,8 10,0 22 12 38 21 SSW 1021,5 8 0 1,2
13.01.2020 05:00:00 9,5 9,5 9,3 8,9 10,0 10 5 16 8 SSE 1022,7 2,3 0 2,4
13.01.2020 04:00:00 9,4 9,4 8,9 8,8 10,0 9 5 15 8 S 1023,8 9 0 0,2
13.01.2020 03:00:00 9,6 9,6 8,9 8,8 10,0 11 6 21 11 S 1024,5 11 0 0,0
13.01.2020 02:00:00 9,2 9,2 8,4 8,8 10,0 8 4 12 6 S 1025,1 0,7 0 0,0
13.01.2020 01:00:00 8,9 8,9 8,4 8,8 10,0 6 3 11 6 S 1025,9 0,4 0 0,0
13.01.2020 00:00:00 9,1 9,1 8,6 8,8 10,0 8 4 16 9 S 1026,6 0,3 0 0,0
12.01.2020 23:00:00 9,0 8,9 7,3 8,8 10,0 9 5 11 6 S 1027,0 2,8 0 0,0
12.01.2020 22:00:00 9,2 9,1 8,4 8,8 10,0 8 4 12 6 S 1027,1 5 0 0,0
12.01.2020 21:00:00 9,2 9,1 7,8 8,8 10,0 6 3 10 5 S 1027,5 1,4 0 0,0
12.01.2020 20:00:00 9,1 9,0 6,8 8,8 10,0 6 4 11 6 S 1027,9 0,6 0 0,0
12.01.2020 19:00:00 9,1 8,8 6,2 8,7 10,0 6 3 8 4 SSW 1028,1 0,7 0 0,0
12.01.2020 18:00:00 10,5 9,7 9,1 8,7 10,0 5 3 13 7 WSW 1027,7 17 0 0,0
12.01.2020 17:00:00 11,3 10,5 10,9 8,6 10,0 7 4 14 8 SW 1027,7 19 13 0,0
12.01.2020 16:00:00 11,4 10,8 11,0 8,5 10,0 9 5 21 11 WSW 1027,4 20 0 0,0
12.01.2020 15:00:00 10,9 10,1 10,9 8,4 10,0 15 8 31 17 W 1027,4 6 0 0,4
12.01.2020 14:00:00 11,6 11,3 11,4 8,4 10,1 17 9 28 15 SW 1027,6 6 0 0,2
12.01.2020 13:00:00 11,2 10,9 11,0 8,3 10,0 14 8 25 14 SW 1028,5 2,5 0 0,2

tt = temperature
td = dewpoint
tt 5cm = temperature 5cm
tt -20cm = temperature -20cm
tt -100cm = temperature -100cm
ff = wind speed
fx = gusts
dd = wind direction
ppp = reduced air pressure
vv = visibility
sd = sunshine duration
rr = precipitation

Next stations